{"data":{"norad_id":54131,"intl_designator":"2022-138U","name":"ONEWEB-0513","alt_names":[],"object_type":"PAYLOAD","status":"ACTIVE","operator":null,"country":"UK","launch_date":"2022-10-22","launch_site_code":"SRILR","launch_vehicle":null,"mission":null,"orbit_class":"UNKNOWN","rcs_meters":null,"size_class":null,"mass_kg":null,"dimensions":null,"purposes":["comms"],"wikipedia_slug":null,"has_3d_model":false,"image_url":null,"decayed_at":null,"tle_current":{"epoch":"2026-09-19T19:38:52.714752Z","epoch_age_seconds":84710,"freshness":"FRESH","line1":"1 54131U 22138U   26262.81866568  .00000074  00000+0  15185-3 0  9999","line2":"2 54131  87.9107 286.0465 0002626  77.4103 282.7324 13.20260721189209","mean_motion":13.20260721,"eccentricity":0.0002626,"inclination_deg":87.9107,"raan_deg":286.0465,"arg_perigee_deg":77.4103,"mean_anomaly_deg":282.7324,"bstar":0.00015185,"rev_number":18920,"period_min":109.0693661559,"perigee_km":1181.738535535,"apogee_km":1185.7100250795,"semimajor_km":7561.8612803072,"source":"CELESTRAK","updated_at":"2026-09-20T09:00:44.718869Z"}}}